This demonstration page uses our WeatherBlox Daily Observations layout. Learn more.

Left ArrowRight Arrow

39.95238, -75.16362

Hourly Observations for June 25, 2022

Temp ( °F °C ) Dew Point ( °F °C ) Humidity (%) Winds ( mph kmh ) Pressure ( in mb ) Visibility ( mi km ) Precip ( " mm )
12:54 am 00:54 Clear 72 22.2 65 18.3 79 79 SSW 5 7 30.07 1018 10 16 0.00 0.00
1:54 am 01:54 Mostly Clear 71 21.7 65 18.3 81 81 SW 9 15 30.08 1019 10 16 0.00 0.00
2:54 am 02:54 Mostly Clear 70 21.1 65 18.3 84 84 SW 7 11 30.09 1019 10 16 0.00 0.00
3:54 am 03:54 Mostly Clear 70 21.1 65 18.3 84 84 SW 6 9 30.10 1019 10 16 0.00 0.00
4:54 am 04:54 Mostly Clear 69 20.6 65 18.3 87 87 SW 5 7 30.10 1019 10 16 0.00 0.00
5:54 am 05:54 Partly Cloudy 69 20.6 65 18.3 87 87 W 6 9 30.12 1020 8 13 0.00 0.00
6:54 am 06:54 Partly Cloudy 70 21.1 66 18.9 87 87 SW 5 7 30.12 1020 8 13 0.00 0.00
7:41 am 07:41 Partly Cloudy 72 22.2 66 18.9 82 82 W 5 7 30.13 1020 10 16 0.00 0.00
7:54 am 07:54 Partly Cloudy 73 22.8 67 19.4 81 81 SW 5 7 30.13 1020 10 16 0.00 0.00
8:54 am 08:54 Partly Cloudy 76 24.4 67 19.4 74 74 SSW 8 13 30.14 1021 10 16 0.00 0.00
9:54 am 09:54 Partly Cloudy 80 26.7 68 20 67 67 SW 8 13 30.14 1021 10 16 0.00 0.00
10:54 am 10:54 Partly Cloudy 83 28.3 68 20 61 61 SSW 10 17 30.14 1021 10 16 0.00 0.00
11:54 am 11:54 Partly Cloudy 86 30 66 18.9 51 51 SSW 8 13 30.13 1020 10 16 0.00 0.00
12:54 pm 12:54 Partly Cloudy 87 30.6 62 16.7 43 43 SSW 9 15 30.12 1020 10 16 0.00 0.00
1:54 pm 13:54 Partly Cloudy 88 31.1 63 17.2 43 43 SW 9 15 30.11 1020 10 16 0.00 0.00
2:54 pm 14:54 Partly Cloudy 89 31.7 63 17.2 42 42 SSW 6 9 30.10 1019 10 16 0.00 0.00
3:54 pm 15:54 Partly Cloudy 90 32.2 62 16.7 39 39 SW 9 15 30.09 1019 10 16 0.00 0.00
4:54 pm 16:54 Partly Cloudy 90 32.2 62 16.7 39 39 WSW 8 13 30.08 1019 10 16 0.00 0.00
5:54 pm 17:54 Partly Cloudy 90 32.2 62 16.7 39 39 WSW 10 17 30.07 1018 10 16 0.00 0.00
6:54 pm 18:54 Mostly Sunny 89 31.7 62 16.7 41 41 SW 10 17 30.07 1018 10 16 0.00 0.00
7:54 pm 19:54 Mostly Sunny 88 31.1 63 17.2 43 43 SW 10 17 30.08 1019 10 16 0.00 0.00
8:54 pm 20:54 Clear 83 28.3 66 18.9 57 57 SSW 12 19 30.08 1019 10 16 0.00 0.00
9:54 pm 21:54 Clear 79 26.1 66 18.9 65 65 SSW 8 13 30.11 1020 10 16 0.00 0.00
10:54 pm 22:54 Clear 78 25.6 66 18.9 67 67 SW 6 9 30.11 1020 10 16 0.00 0.00
11:54 pm 23:54 Clear 76 24.4 67 19.4 74 74 SW 3 6 30.12 1020 10 16 0.00 0.00

Powered by AerisWeather